Weather History for KLQK - March, 2014

Change the Weather History Date:

Saturday, March 15, 2014

  Actual Average Record
Temperature  
Mean Temperature 54 °F -  
Max Temperature 70 °F 66 °F 79 °F (2015)
Min Temperature 39 °F 40 °F 39 °F (2014)
Degree Days  
Heating Degree Days 10    
Growing Degree Days 4 (Base 50)    
Moisture  
Dew Point 35 °F    
Average Humidity 47    
Maximum Humidity 79    
Minimum Humidity 30    
Precipitation  
Precipitation 0.00 in - - ()
Sea Level Pressure  
Sea Level Pressure 30.04 in    
Wind  
Wind Speed - (North)    
Max Wind Speed -    
Max Gust Speed -    
Visibility 10 miles    
Events      
Averages and records for this station are not official NWS values.
T = Trace of Precipitation, MM = Missing Value Source: NWS Daily Summary

Daily Weather History Graph

Daily Weather History Graph

Search for Another Location

Airport or City:

Trip Planner

Search our weather history database for the weather conditions in past years. The results will help you decide how hot, cold, wet, or windy it might be!

Date:

Astronomy

Mar. 15, 2014 Rise Set
Actual Time 7:41 AM EDT 7:38 PM EDT
Civil Twilight 7:16 AM EDT 8:03 PM EDT
Nautical Twilight 6:46 AM EDT 8:32 PM EDT
Astronomical Twilight 6:17 AM EDT 9:02 PM EDT
Moon 6:57 PM EDT (3/15) 6:51 AM EDT (3/15)
Length of Visible Light 12h 47m
Length of Day
11h 57m
Waxing Gibbous, 99% of the Moon is Illuminated
Mar 15
Waxing Gibbous
Mar 16
Full
Mar 23
Last Quarter
Mar 30
New
Apr 7
First Quarter

Hourly Weather History & Observations

Time (EDT) Temp. Dew Point Humidity Pressure Visibility Wind Dir Wind Speed Gust Speed Precip Events Conditions
12:15 AM 53.8 °F 28.9 °F 39% 30.09 in 10.0 mi North - - N/A   Scattered Clouds
12:35 AM 53.8 °F 28.9 °F 39% 30.09 in 10.0 mi North - - N/A   Scattered Clouds
12:55 AM 54.1 °F 28.4 °F 37% 30.09 in 10.0 mi North - - N/A   Scattered Clouds
1:15 AM 53.8 °F 28.2 °F 37% 30.08 in 10.0 mi North - - N/A   Mostly Cloudy
1:35 AM 53.1 °F 28.2 °F 38% 30.07 in 10.0 mi North - - N/A   Scattered Clouds
1:55 AM 52.7 °F 28.4 °F 39% 30.07 in 10.0 mi North - - N/A   Mostly Cloudy
2:15 AM 51.1 °F 28.6 °F 42% 30.06 in 10.0 mi North - - N/A   Scattered Clouds
2:35 AM 50.4 °F 28.9 °F 44% 30.07 in 10.0 mi North - - N/A   Clear
2:55 AM 50.0 °F 29.1 °F 45% 30.07 in 10.0 mi North - - N/A   Clear
3:15 AM 49.6 °F 29.1 °F 45% 30.06 in 10.0 mi North - - N/A   Clear
3:35 AM 48.7 °F 29.3 °F 47% 30.06 in 10.0 mi North - - N/A   Clear
3:55 AM 48.6 °F 29.7 °F 48% 30.05 in 10.0 mi North - - N/A   Clear
4:15 AM 47.8 °F 30.2 °F 50% 30.05 in 10.0 mi North - - N/A   Clear
4:35 AM 45.1 °F 30.9 °F 58% 30.05 in 10.0 mi North - - N/A   Clear
4:55 AM 42.4 °F 31.5 °F 65% 30.05 in 10.0 mi North - - N/A   Clear
5:15 AM 43.9 °F 31.8 °F 63% 30.05 in 10.0 mi North - - N/A   Clear
5:35 AM 44.6 °F 31.8 °F 61% 30.05 in 10.0 mi North - - N/A   Clear
5:55 AM 45.3 °F 31.8 °F 59% 30.05 in 10.0 mi North - - N/A   Clear
6:15 AM 45.7 °F 32.0 °F 59% 30.05 in 10.0 mi North - - N/A   Clear
6:35 AM 45.1 °F 32.0 °F 60% 30.06 in 10.0 mi North - - N/A   Clear
6:55 AM 43.5 °F 32.0 °F 64% 30.06 in 10.0 mi North - - N/A   Clear
7:15 AM 41.5 °F 32.0 °F 69% 30.06 in 10.0 mi North - - N/A   Clear
7:35 AM 43.3 °F 32.0 °F 64% 30.06 in 10.0 mi North - - N/A   Clear
7:55 AM 41.9 °F 32.2 °F 68% 30.07 in 10.0 mi North - - N/A   Clear
8:15 AM 40.3 °F 32.2 °F 73% 30.08 in 10.0 mi North - - N/A   Clear
8:35 AM 39.4 °F 33.4 °F 79% 30.08 in 10.0 mi North - - N/A   Clear
8:55 AM 42.3 °F 35.2 °F 76% 30.08 in 10.0 mi North - - N/A   Clear
9:15 AM 45.7 °F 36.0 °F 69% 30.09 in 10.0 mi North - - N/A   Clear
9:35 AM 48.4 °F 35.6 °F 61% 30.09 in 10.0 mi North - - N/A   Clear
9:55 AM 50.5 °F 35.1 °F 55% - 10.0 mi North - - N/A   Clear
10:15 AM - - N/A% - 10.0 mi North - - N/A   Clear
10:35 AM 58.1 °F 37.4 °F 46% 30.09 in 10.0 mi North - - N/A   Clear
10:55 AM 61.0 °F 37.4 °F 42% 30.09 in 10.0 mi North - - N/A   Clear
11:15 AM 62.8 °F 36.7 °F 38% 30.09 in 10.0 mi North - - N/A   Clear
11:35 AM 64.2 °F 36.3 °F 36% 30.09 in 10.0 mi North - - N/A   Clear
11:55 AM 64.8 °F 35.6 °F 34% 30.09 in 10.0 mi North - - N/A   Clear
12:15 PM 65.1 °F 36.1 °F 34% 30.08 in 10.0 mi North - - N/A   Clear
12:35 PM 66.4 °F 36.7 °F 33% 30.08 in 10.0 mi North - - N/A   Clear
12:55 PM 66.6 °F 36.5 °F 33% 30.08 in 10.0 mi North - - N/A   Clear
1:15 PM 67.1 °F 36.7 °F 33% 30.07 in 10.0 mi North - - N/A   Clear
1:35 PM 67.3 °F 37.2 °F 33% 30.07 in 10.0 mi North - - N/A   Clear
1:55 PM 68.0 °F 37.6 °F 33% 30.06 in 10.0 mi North - - N/A   Clear
2:15 PM 69.1 °F 37.9 °F 32% 30.05 in 10.0 mi North - - N/A   Clear
2:35 PM 70.0 °F 38.1 °F 31% 30.04 in 10.0 mi North - - N/A   Clear
2:55 PM 70.5 °F 38.1 °F 31% 30.03 in 10.0 mi North - - N/A   Clear
3:15 PM 70.9 °F 37.9 °F 30% 30.02 in 10.0 mi North - - N/A   Clear
3:35 PM 70.7 °F 37.6 °F 30% 30.01 in 10.0 mi North - - N/A   Clear
3:55 PM 70.9 °F 37.9 °F 30% 30.00 in 10.0 mi North - - N/A   Clear
4:15 PM 70.7 °F 37.9 °F 30% 30.00 in 10.0 mi North - - N/A   Clear
4:35 PM 70.7 °F 37.8 °F 30% 30.00 in 10.0 mi North - - N/A   Clear
4:55 PM 70.7 °F 38.1 °F 30% 29.99 in 10.0 mi North - - N/A   Clear
5:15 PM 70.7 °F 37.8 °F 30% 29.99 in 10.0 mi North - - N/A   Clear
5:35 PM 70.2 °F 37.4 °F 30% 29.98 in 10.0 mi North - - N/A   Clear
5:55 PM 69.4 °F 38.1 °F 32% 29.98 in 10.0 mi North - - N/A   Clear
6:15 PM 69.1 °F 38.1 °F 32% 29.98 in 10.0 mi North - - N/A   Clear
6:35 PM 68.5 °F 38.1 °F 33% 29.99 in 10.0 mi North - - N/A   Clear
6:55 PM 67.3 °F 37.9 °F 34% 29.99 in 10.0 mi North - - N/A   Clear
7:15 PM 66.0 °F 37.8 °F 35% 30.00 in 10.0 mi North - - N/A   Clear
7:35 PM 64.8 °F 37.8 °F 37% 30.00 in 10.0 mi North - - N/A   Clear
7:55 PM 63.5 °F 37.2 °F 38% 30.01 in 10.0 mi North - - N/A   Clear
8:15 PM 62.6 °F 36.9 °F 38% 30.01 in 10.0 mi North - - N/A   Clear
8:35 PM 61.7 °F 36.9 °F 40% 30.01 in 10.0 mi North - - N/A   Clear
8:55 PM 60.6 °F 36.7 °F 41% 30.01 in 10.0 mi North - - N/A   Clear
9:15 PM 56.8 °F 38.1 °F 50% 30.01 in 10.0 mi North - - N/A   Clear
9:35 PM 55.2 °F 38.5 °F 53% 30.02 in 10.0 mi North - - N/A   Clear
9:55 PM 52.7 °F 39.4 °F 61% 30.02 in 10.0 mi North - - N/A   Clear
10:15 PM 51.1 °F 40.1 °F 66% 30.02 in 10.0 mi North - - N/A   Clear
10:35 PM 50.9 °F 40.3 °F 67% 30.03 in 10.0 mi North - - N/A   Clear
10:55 PM 50.4 °F 40.3 °F 68% 30.03 in 10.0 mi North - - N/A   Clear
11:15 PM 50.0 °F 40.6 °F 70% 30.03 in 10.0 mi North - - N/A   Clear
11:35 PM 49.5 °F 40.6 °F 72% 30.02 in 10.0 mi North - - N/A   Clear
11:55 PM 48.9 °F 40.5 °F 73% 30.03 in 10.0 mi North - - N/A   Clear